DELTA 1 DEB, 26839

Orbit data source: Space-Track

DELTA 1 DEB, 26839 is space debris in SSO originally from a launch on Thu, 12 Jun 1975 UTC launched from the Air Force Western Test Range (AFWTR). Debris objects in space refer to the collection of defunct objects orbiting the Earth. Examples of debris include non-operational satellites, rocket bodies, and fragments generated from explosions, collisions, or faulty payload assembly.

Loading next visibility...
Identifier
26839, 1975-052KT
Orbit
SSO
Country
Flag of USUS
Related business
Manufacturer
Unknown
Mission
Spacecraft
Bus & Motor
Unknown
Mass
Unknown
Launch date (UTC)
1975-06-12 (51 years ago)
Launch vehicle
Unknown
Launch site
Air Force Western Test Range (AFWTR)
Object type
Payload
Rocket body
Debris
Shape & HBR
Unknown shape, 0.1 m
Radar Cross Section
Small (<0.1 m²)

Expand to show TLE details & history
Last TLE update: 1 day ago

TLE from 1 day ago
0 DELTA 1 DEB
1 26839U 75052KT  25350.28935897  .00000167  00000-0  43842-3 0  9991
2 26839 100.1198 275.7698 0083270 322.0623 190.4910 13.31012578642122
Epoch: 2025-12-16T06:56Z
TLE epoch observation values (Epoch: 2025-12-16T06:56:40.615Z)
Latitude
27.19136°
Longitude
-88.34069°
Altitude
1,207.732 km
Speed
7.223 km/s
True Right ascension
06h 44m 01s
True Declination
27° 03' 36"
Sunlit
Object was in full shadow at epoch
Visualization orbit readout
Latitude
Unknown
Longitude
Unknown
Altitude
Unknown
Speed
Unknown
Apparent Right ascension
Unknown
Apparent Declination
Unknown
Sunlit
N/A
Visualization observer readout
Local Sidereal Time
06:24:56
Azimuth
Unknown
Elevation
Unknown
Doppler factor
Unknown
Orbital elements
Apogee altitude
1,202.901 km
Perigee altitude
1,077.689 km
Semi-major axis
7,518.432 km
Eccentricity
0.00833
Inclination
100.1198°
RAAN
275.7698°
Arg. of periapsis
322.0623°
True anomaly
190.31902°
Mean anomaly
190.491°
Eccentric anomaly
190.40483°
Mean motion
3.3293 °/min
Orbital period
108.13 mins
BSTAR
0.00043842
Loading maneuver chart data...
Computing Atmospheric mass density...

Documentation

Showing up to 5 results
|